"read_dt","SO2 (ppb)","flags","PMT voltage (V)","lamp voltage (V)","lamp intensity (Hz)","internal temp (C)","react chamber temp (C)","sample flow (l/min)","pres (mmHg)","SO2 bkg (ppb)","SO2 coefficient"
2013-10-28 00:00:00,8931E-5,5C000000,-0724,0963,11015,027.0,045.3,0.392,732.3,01.19,0.508
2013-10-28 00:01:00,1172E-4,5C000000,-0724,0964,10755,027.0,045.3,0.392,732.3,01.19,0.508
2013-10-28 00:02:00,1345E-4,5C000000,-0724,0964,10975,027.0,045.3,0.392,732.4,01.19,0.508
2013-10-28 00:03:00,1340E-4,5C000000,-0724,0964,10891,027.0,045.3,0.391,732.4,01.19,0.508
2013-10-28 00:04:00,7896E-5,5C000000,-0724,0963,10786,027.0,045.3,0.391,732.5,01.19,0.508
2013-10-28 00:05:00,8070E-5,5C000000,-0724,0964,11005,027.0,045.3,0.392,732.5,01.19,0.508
2013-10-28 00:06:00,1124E-4,5C000000,-0724,0964,10994,027.0,045.3,0.392,732.5,01.19,0.508
2013-10-28 00:07:00,2119E-4,5C000000,-0724,0964,10927,027.0,045.3,0.392,732.5,01.19,0.508
2013-10-28 00:08:00,8163E-5,5C000000,-0724,0963,10901,027.0,045.3,0.392,732.5,01.19,0.508
2013-10-28 00:09:00,1393E-4,5C000000,-0724,0965,10831,027.0,045.3,0.392,732.5,01.19,0.508
2013-10-28 00:10:00,1919E-4,5C000000,-0724,0964,10933,027.0,045.3,0.392,732.5,01.19,0.508
2013-10-28 00:11:00,1330E-4,5C000000,-0724,0965,10918,027.0,045.3,0.392,732.6,01.19,0.508
2013-10-28 00:12:00,1933E-4,5C000000,-0724,0964,10994,027.0,045.3,0.392,732.6,01.19,0.508
2013-10-28 00:13:00,1307E-4,5C000000,-0724,0964,10860,027.0,045.3,0.392,732.6,01.19,0.508
2013-10-28 00:14:00,7872E-5,5C000000,-0724,0964,10773,027.0,045.3,0.391,732.5,01.19,0.508
2013-10-28 00:15:00,1861E-4,5C000000,-0724,0964,10905,027.0,045.3,0.391,732.5,01.19,0.508
2013-10-28 00:16:00,1245E-4,5C000000,-0724,0964,10805,027.0,045.3,0.392,732.5,01.19,0.508
2013-10-28 00:17:00,1054E-4,5C000000,-0724,0964,10924,027.0,045.3,0.392,732.5,01.19,0.508
2013-10-28 00:18:00,2101E-4,5C000000,-0724,0964,10866,027.0,045.3,0.392,732.6,01.19,0.508
2013-10-28 00:19:00,1376E-4,5C000000,-0724,0964,10965,027.0,045.3,0.392,732.5,01.19,0.508
2013-10-28 00:20:00,6552E-5,5C000000,-0724,0964,10922,027.0,045.3,0.392,732.5,01.19,0.508
2013-10-28 00:21:00,1010E-4,5C000000,-0724,0964,10879,027.0,045.3,0.392,732.5,01.19,0.508
2013-10-28 00:22:00,8266E-5,5C000000,-0724,0964,10901,027.1,045.3,0.392,732.5,01.19,0.508
2013-10-28 00:23:00,1663E-4,5C000000,-0724,0964,10955,027.1,045.3,0.392,732.5,01.19,0.508
2013-10-28 00:24:00,7832E-5,5C000000,-0724,0964,11018,027.0,045.3,0.391,732.5,01.19,0.508
2013-10-28 00:25:00,9543E-5,5C000000,-0724,0963,10745,027.1,045.3,0.392,732.5,01.19,0.508
2013-10-28 00:26:00,5070E-5,5C000000,-0724,0964,10854,027.1,045.3,0.392,732.6,01.19,0.508
2013-10-28 00:27:00,9593E-5,5C000000,-0724,0963,10809,027.1,045.3,0.392,732.6,01.19,0.508
2013-10-28 00:28:00,2045E-4,5C000000,-0724,0964,10687,027.1,045.3,0.392,732.6,01.19,0.508
2013-10-28 00:29:00,7980E-5,5C000000,-0724,0964,10729,027.1,045.3,0.392,732.6,01.19,0.508
2013-10-28 00:30:00,1495E-4,5C000000,-0724,0964,10896,027.1,045.3,0.392,732.5,01.19,0.508
2013-10-28 00:31:00,1845E-4,5C000000,-0724,0965,10759,027.1,045.3,0.392,732.5,01.19,0.508
2013-10-28 00:32:00,9152E-5,5C000000,-0724,0964,10964,027.1,045.3,0.392,732.5,01.19,0.508
2013-10-28 00:33:00,9558E-5,5C000000,-0724,0964,10897,027.1,045.3,0.392,732.5,01.19,0.508
2013-10-28 00:34:00,4928E-5,5C000000,-0724,0964,10865,027.1,045.3,0.391,732.4,01.19,0.508
2013-10-28 00:35:00,9879E-5,5C000000,-0724,0965,10815,027.1,045.3,0.391,732.4,01.19,0.508
2013-10-28 00:36:00,6154E-5,5C000000,-0724,0965,10870,027.1,045.3,0.391,732.5,01.19,0.508
2013-10-28 00:37:00,7656E-5,5C000000,-0724,0964,10936,027.1,045.3,0.391,732.5,01.19,0.508
2013-10-28 00:38:00,1103E-4,5C000000,-0724,0964,10967,027.1,045.3,0.391,732.4,01.19,0.508
2013-10-28 00:39:00,1816E-4,5C000000,-0724,0964,10895,027.1,045.3,0.392,732.5,01.19,0.508
2013-10-28 00:40:00,2117E-4,5C000000,-0724,0964,10852,027.1,045.3,0.392,732.4,01.19,0.508
2013-10-28 00:41:00,5328E-5,5C000000,-0724,0964,10824,027.1,045.3,0.392,732.5,01.19,0.508
2013-10-28 00:42:00,1617E-4,5C000000,-0724,0964,10672,027.1,045.3,0.392,732.5,01.19,0.508
2013-10-28 00:43:00,1742E-4,5C000000,-0724,0964,10941,027.1,045.3,0.392,732.6,01.19,0.508
2013-10-28 00:44:00,1336E-4,5C000000,-0724,0964,10992,027.1,045.3,0.392,732.6,01.19,0.508
2013-10-28 00:45:00,2415E-4,5C000000,-0724,0965,10981,027.1,045.3,0.392,732.5,01.19,0.508
2013-10-28 00:46:00,5510E-5,5C000000,-0724,0965,10936,027.1,045.3,0.392,732.6,01.19,0.508
2013-10-28 00:47:00,4285E-5,5C000000,-0724,0964,10909,027.1,045.3,0.391,732.6,01.19,0.508
2013-10-28 00:48:00,8849E-5,5C000000,-0724,0963,10897,027.1,045.3,0.391,732.6,01.19,0.508
2013-10-28 00:49:00,1750E-4,5C000000,-0724,0964,10880,027.1,045.3,0.391,732.6,01.19,0.508
2013-10-28 00:50:00,1124E-4,5C000000,-0724,0964,10972,027.1,045.3,0.391,732.6,01.19,0.508
2013-10-28 00:51:00,6258E-5,5C000000,-0724,0964,10930,027.1,045.3,0.392,732.6,01.19,0.508
2013-10-28 00:52:00,1523E-4,5C000000,-0724,0964,10952,027.1,045.3,0.392,732.6,01.19,0.508
2013-10-28 00:53:00,9063E-5,5C000000,-0724,0963,10802,027.1,045.3,0.392,732.6,01.19,0.508
2013-10-28 00:54:00,1370E-4,5C000000,-0724,0964,10909,027.1,045.3,0.392,732.6,01.19,0.508
2013-10-28 00:55:00,1344E-4,5C000000,-0724,0964,10833,027.2,045.3,0.392,732.6,01.19,0.508
2013-10-28 00:56:00,1696E-4,5C000000,-0724,0964,10877,027.1,045.3,0.392,732.6,01.19,0.508
2013-10-28 00:57:00,1530E-4,5C000000,-0724,0963,10959,027.2,045.3,0.392,732.6,01.19,0.508
2013-10-28 00:58:00,6527E-5,5C000000,-0724,0965,10938,027.2,045.3,0.391,732.6,01.19,0.508
2013-10-28 00:59:00,1436E-4,5C000000,-0724,0964,10850,027.2,045.3,0.391,732.6,01.19,0.508
2013-10-28 01:00:00,1213E-4,5C000000,-0724,0965,10945,027.2,045.3,0.391,732.6,01.19,0.508
2013-10-28 01:01:00,1142E-4,5C000000,-0724,0964,10878,027.1,045.3,0.391,732.6,01.19,0.508
2013-10-28 01:02:00,1643E-4,5C000000,-0724,0964,10955,027.1,045.3,0.391,732.6,01.19,0.508
2013-10-28 01:03:00,1769E-4,5C000000,-0724,0964,10858,027.2,045.3,0.392,732.5,01.19,0.508
2013-10-28 01:04:00,1041E-4,5C000000,-0724,0964,10887,027.2,045.3,0.392,732.6,01.19,0.508
2013-10-28 01:05:00,1406E-4,5C000000,-0724,0964,10795,027.2,045.3,0.392,732.6,01.19,0.508
2013-10-28 01:06:00,1172E-4,5C000000,-0724,0965,10832,027.1,045.3,0.392,732.5,01.19,0.508
2013-10-28 01:07:00,1494E-4,5C000000,-0724,0964,10875,027.2,045.3,0.392,732.5,01.19,0.508
2013-10-28 01:08:00,1482E-4,5C000000,-0724,0964,10933,027.1,045.3,0.392,732.5,01.19,0.508
2013-10-28 01:09:00,4577E-5,5C000000,-0724,0965,10955,027.1,045.3,0.392,732.6,01.19,0.508
2013-10-28 01:10:00,1290E-4,5C000000,-0724,0964,10911,027.1,045.3,0.392,732.6,01.19,0.508
2013-10-28 01:11:00,1691E-4,5C000000,-0724,0964,10892,027.1,045.3,0.392,732.5,01.19,0.508
2013-10-28 01:12:00,5699E-5,5C000000,-0724,0963,10855,027.1,045.3,0.392,732.6,01.19,0.508
2013-10-28 01:13:00,1633E-4,5C000000,-0724,0964,10888,027.1,045.3,0.392,732.7,01.19,0.508
2013-10-28 01:14:00,1584E-4,5C000000,-0724,0964,10812,027.1,045.3,0.392,732.7,01.19,0.508
2013-10-28 01:15:00,1115E-4,5C000000,-0724,0964,10912,027.1,045.3,0.392,732.7,01.19,0.508
2013-10-28 01:16:00,7818E-5,5C000000,-0724,0965,10779,027.1,045.3,0.392,732.5,01.19,0.508
2013-10-28 01:17:00,1066E-4,5C000000,-0724,0964,10961,027.1,045.3,0.392,732.6,01.19,0.508
2013-10-28 01:18:00,8908E-5,5C000000,-0724,0964,10947,027.1,045.3,0.391,732.7,01.19,0.508
2013-10-28 01:19:00,1014E-4,5C000000,-0724,0964,10916,027.1,045.3,0.391,732.7,01.19,0.508
2013-10-28 01:20:00,6987E-5,5C000000,-0724,0964,10932,027.1,045.3,0.391,732.7,01.19,0.508
2013-10-28 01:21:00,1469E-4,5C000000,-0724,0964,10802,027.0,045.3,0.391,732.7,01.19,0.508
2013-10-28 01:22:00,3837E-5,5C000000,-0724,0964,10804,027.1,045.3,0.391,732.5,01.19,0.508
2013-10-28 01:23:00,3967E-5,5C000000,-0724,0964,10908,027.0,045.3,0.391,732.6,01.19,0.508
2013-10-28 01:24:00,2595E-5,5C000000,-0724,0964,10882,027.0,045.3,0.392,732.8,01.19,0.508
2013-10-28 01:25:00,1168E-4,5C000000,-0724,0965,10797,027.0,045.3,0.392,732.8,01.19,0.508
2013-10-28 01:26:00,7479E-5,5C000000,-0724,0964,10911,027.0,045.3,0.392,732.8,01.19,0.508
2013-10-28 01:27:00,4505E-5,5C000000,-0724,0964,10906,027.0,045.3,0.392,732.7,01.19,0.508
2013-10-28 01:28:00,1485E-4,5C000000,-0724,0964,10755,027.0,045.3,0.392,732.8,01.19,0.508
2013-10-28 01:29:00,1820E-4,5C000000,-0724,0964,10805,027.0,045.3,0.392,732.8,01.19,0.508
2013-10-28 01:30:00,1396E-4,5C000000,-0724,0964,10881,027.0,045.3,0.392,732.8,01.19,0.508
2013-10-28 01:31:00,9688E-5,5C000000,-0724,0964,10985,027.0,045.3,0.392,732.8,01.19,0.508
2013-10-28 01:32:00,8391E-5,5C000000,-0724,0963,10904,027.0,045.3,0.393,732.8,01.19,0.508
2013-10-28 01:33:00,1576E-4,5C000000,-0724,0964,10929,027.0,045.3,0.392,732.8,01.19,0.508
2013-10-28 01:34:00,1543E-4,5C000000,-0724,0963,10847,027.0,045.3,0.392,732.9,01.19,0.508
2013-10-28 01:35:00,1173E-4,5C000000,-0724,0964,10907,026.9,045.3,0.392,732.8,01.19,0.508
2013-10-28 01:36:00,1489E-4,5C000000,-0724,0964,10693,026.9,045.3,0.392,732.9,01.19,0.508
2013-10-28 01:37:00,1198E-4,5C000000,-0724,0964,10852,027.0,045.3,0.392,732.9,01.19,0.508
2013-10-28 01:38:00,1273E-4,5C000000,-0724,0964,10866,026.9,045.3,0.392,732.9,01.19,0.508
2013-10-28 01:39:00,1947E-4,5C000000,-0724,0964,10853,026.9,045.3,0.392,733.0,01.19,0.508
2013-10-28 01:40:00,1393E-4,5C000000,-0724,0963,10874,026.9,045.3,0.392,733.0,01.19,0.508
2013-10-28 01:41:00,1359E-4,5C000000,-0724,0964,10820,026.9,045.3,0.392,733.0,01.19,0.508
2013-10-28 01:42:00,1941E-4,5C000000,-0724,0965,10954,026.9,045.3,0.392,733.0,01.19,0.508
2013-10-28 01:43:00,1944E-4,5C000000,-0724,0964,10893,026.9,045.3,0.393,733.1,01.19,0.508
2013-10-28 01:44:00,1450E-4,5C000000,-0724,0964,10986,026.9,045.3,0.393,733.1,01.19,0.508
2013-10-28 01:45:00,1392E-4,5C000000,-0724,0964,10930,026.9,045.3,0.393,733.1,01.19,0.508
2013-10-28 01:46:00,7550E-5,5C000000,-0724,0964,10835,026.9,045.3,0.393,733.1,01.19,0.508
2013-10-28 01:47:00,1267E-4,5C000000,-0724,0964,10894,026.9,045.3,0.393,733.1,01.19,0.508
2013-10-28 01:48:00,6784E-6,5C000000,-0724,0964,10878,026.9,045.3,0.393,733.1,01.19,0.508
2013-10-28 01:49:00,1728E-4,5C000000,-0724,0963,10809,026.9,045.3,0.392,733.1,01.19,0.508
2013-10-28 01:50:00,1080E-4,5C000000,-0724,0964,10853,026.9,045.3,0.392,733.2,01.19,0.508
2013-10-28 01:51:00,1819E-4,5C000000,-0724,0964,10905,026.8,045.3,0.392,733.1,01.19,0.508
2013-10-28 01:52:00,2596E-4,5C000000,-0724,0964,10973,026.8,045.3,0.392,733.1,01.19,0.508
2013-10-28 01:53:00,1544E-4,5C000000,-0724,0963,10943,026.8,045.3,0.392,733.1,01.19,0.508
2013-10-28 01:54:00,1495E-4,5C000000,-0724,0963,10911,026.8,045.3,0.392,733.2,01.19,0.508
2013-10-28 01:55:00,1103E-4,5C000000,-0724,0963,10900,026.8,045.3,0.392,733.2,01.19,0.508
2013-10-28 01:56:00,1340E-4,5C000000,-0724,0964,10815,026.8,045.3,0.392,733.2,01.19,0.508
2013-10-28 01:57:00,1096E-4,5C000000,-0724,0963,10992,026.8,045.3,0.392,733.2,01.19,0.508
2013-10-28 01:58:00,2863E-5,5C000000,-0724,0964,10787,026.8,045.3,0.393,733.2,01.19,0.508
2013-10-28 01:59:00,9513E-5,5C000000,-0724,0964,10861,026.8,045.3,0.393,733.2,01.19,0.508
2013-10-28 02:00:00,1322E-4,5C000000,-0724,0964,10777,026.8,045.3,0.393,733.2,01.19,0.508
2013-10-28 02:01:00,1574E-4,5C000000,-0724,0963,10826,026.8,045.3,0.393,733.2,01.19,0.508
2013-10-28 02:02:00,1674E-4,5C000000,-0724,0964,10919,026.8,045.3,0.393,733.2,01.19,0.508
2013-10-28 02:03:00,1238E-4,5C000000,-0724,0964,10954,026.8,045.3,0.393,733.2,01.19,0.508
2013-10-28 02:04:00,1415E-4,5C000000,-0724,0963,10827,026.8,045.3,0.393,733.1,01.19,0.508
2013-10-28 02:05:00,7427E-5,5C000000,-0724,0963,10909,026.8,045.3,0.392,733.2,01.19,0.508
2013-10-28 02:06:00,1093E-4,5C000000,-0724,0964,10884,026.8,045.3,0.392,733.1,01.19,0.508
2013-10-28 02:07:00,1617E-4,5C000000,-0724,0964,10771,026.8,045.3,0.392,733.2,01.19,0.508
2013-10-28 02:08:00,9417E-5,5C000000,-0724,0964,10969,026.8,045.3,0.392,733.2,01.19,0.508
2013-10-28 02:09:00,1468E-4,5C000000,-0724,0964,10926,026.8,045.3,0.392,733.0,01.19,0.508
2013-10-28 02:10:00,9304E-5,5C000000,-0724,0964,10896,026.7,045.3,0.393,733.2,01.19,0.508
2013-10-28 02:11:00,1014E-4,5C000000,-0724,0964,10808,026.8,045.3,0.393,733.2,01.19,0.508
2013-10-28 02:12:00,8429E-5,5C000000,-0724,0963,10874,026.7,045.3,0.393,733.2,01.19,0.508
2013-10-28 02:13:00,1262E-4,5C000000,-0724,0964,11015,026.7,045.3,0.393,733.2,01.19,0.508
2013-10-28 02:14:00,2444E-4,5C000000,-0724,0964,10920,026.7,045.3,0.393,733.2,01.19,0.508
2013-10-28 02:15:00,1404E-4,5C000000,-0724,0964,10905,026.7,045.3,0.393,733.2,01.19,0.508
2013-10-28 02:16:00,1621E-4,5C000000,-0724,0963,10949,026.7,045.3,0.392,733.1,01.19,0.508
2013-10-28 02:17:00,1943E-4,5C000000,-0724,0963,10879,026.7,045.3,0.392,733.2,01.19,0.508
2013-10-28 02:18:00,1751E-4,5C000000,-0724,0963,10763,026.7,045.3,0.392,733.2,01.19,0.508
2013-10-28 02:19:00,1196E-4,5C000000,-0724,0962,10927,026.7,045.3,0.392,733.2,01.19,0.508
2013-10-28 02:20:00,1641E-4,5C000000,-0724,0964,10844,026.7,045.3,0.393,733.2,01.19,0.508
2013-10-28 02:21:00,1155E-4,5C000000,-0724,0963,10974,026.7,045.3,0.393,733.1,01.19,0.508
2013-10-28 02:22:00,1052E-4,5C000000,-0724,0964,10940,026.7,045.3,0.393,733.1,01.19,0.508
2013-10-28 02:23:00,1137E-4,5C000000,-0724,0963,10872,026.7,045.3,0.393,733.0,01.19,0.508
2013-10-28 02:24:00,9831E-5,5C000000,-0724,0963,11022,026.7,045.3,0.393,733.1,01.19,0.508
2013-10-28 02:25:00,1745E-4,5C000000,-0724,0964,10813,026.7,045.3,0.393,733.1,01.19,0.508
2013-10-28 02:26:00,1039E-4,5C000000,-0724,0964,10933,026.7,045.3,0.393,733.2,01.19,0.508
2013-10-28 02:27:00,1353E-4,5C000000,-0724,0963,10878,026.7,045.3,0.393,733.2,01.19,0.508
2013-10-28 02:28:00,9521E-5,5C000000,-0724,0964,10868,026.7,045.3,0.393,733.1,01.19,0.508
2013-10-28 02:29:00,1006E-4,5C000000,-0724,0963,10816,026.7,045.3,0.392,733.2,01.19,0.508
2013-10-28 02:30:00,7956E-5,5C000000,-0724,0964,10960,026.7,045.3,0.392,733.2,01.19,0.508
2013-10-28 02:31:00,1567E-4,5C000000,-0724,0963,10892,026.7,045.3,0.392,733.3,01.19,0.508
2013-10-28 02:32:00,1322E-4,5C000000,-0724,0964,10861,026.7,045.3,0.392,733.2,01.19,0.508
2013-10-28 02:33:00,7516E-5,5C000000,-0724,0963,10805,026.7,045.3,0.393,733.2,01.19,0.508
2013-10-28 02:34:00,2325E-5,5C000000,-0724,0963,10694,026.6,045.3,0.393,733.2,01.19,0.508
2013-10-28 02:35:00,1423E-4,5C000000,-0724,0963,10925,026.6,045.3,0.393,733.2,01.19,0.508
2013-10-28 02:36:00,1406E-4,5C000000,-0724,0964,10976,026.6,045.3,0.393,733.3,01.19,0.508
2013-10-28 02:37:00,9602E-5,5C000000,-0724,0963,10798,026.7,045.3,0.393,733.4,01.19,0.508
2013-10-28 02:38:00,1312E-4,5C000000,-0724,0964,10912,026.6,045.3,0.393,733.4,01.19,0.508
2013-10-28 02:39:00,4154E-6,5C000000,-0724,0963,11058,026.6,045.3,0.393,733.3,01.19,0.508
2013-10-28 02:40:00,1263E-4,5C000000,-0724,0964,10871,026.7,045.3,0.393,733.3,01.19,0.508
2013-10-28 02:41:00,1019E-4,5C000000,-0724,0963,10826,026.6,045.3,0.393,733.3,01.19,0.508
2013-10-28 02:42:00,7407E-5,5C000000,-0724,0963,11068,026.6,045.3,0.393,733.4,01.19,0.508
2013-10-28 02:43:00,9870E-5,5C000000,-0724,0963,10871,026.7,045.3,0.393,733.3,01.19,0.508
2013-10-28 02:44:00,4066E-5,5C000000,-0724,0964,10903,026.6,045.3,0.393,733.3,01.19,0.508
2013-10-28 02:45:00,1664E-4,5C000000,-0724,0964,10942,026.6,045.3,0.393,733.2,01.19,0.508
2013-10-28 02:46:00,1638E-4,5C000000,-0724,0964,10943,026.6,045.3,0.393,733.4,01.19,0.508
2013-10-28 02:47:00,1898E-4,5C000000,-0724,0963,10814,026.6,045.3,0.393,733.1,01.19,0.508
2013-10-28 02:48:00,5894E-5,5C000000,-0724,0963,10896,026.6,045.3,0.393,733.3,01.19,0.508
2013-10-28 02:49:00,2772E-5,5C000000,-0724,0964,10694,026.6,045.3,0.393,733.1,01.19,0.508
2013-10-28 02:50:00,1213E-4,5C000000,-0724,0963,10839,026.6,045.3,0.393,733.1,01.19,0.508
2013-10-28 02:51:00,1123E-4,5C000000,-0724,0963,10922,026.6,045.3,0.393,733.2,01.19,0.508
2013-10-28 02:52:00,6696E-5,5C000000,-0724,0964,10885,026.6,045.3,0.393,733.2,01.19,0.508
2013-10-28 02:53:00,1149E-4,5C000000,-0724,0963,10887,026.6,045.3,0.393,733.2,01.19,0.508
2013-10-28 02:54:00,9765E-5,5C000000,-0724,0964,10798,026.6,045.3,0.393,733.2,01.19,0.508
2013-10-28 02:55:00,5938E-5,5C000000,-0724,0964,10936,026.6,045.3,0.393,733.2,01.19,0.508
2013-10-28 02:56:00,7390E-5,5C000000,-0724,0963,10956,026.6,045.3,0.393,733.3,01.19,0.508
2013-10-28 02:57:00,5907E-5,5C000000,-0724,0963,10939,026.6,045.3,0.393,733.4,01.19,0.508
2013-10-28 02:58:00,1094E-4,5C000000,-0724,0963,10873,026.6,045.3,0.393,733.3,01.19,0.508
2013-10-28 02:59:00,1337E-4,5C000000,-0724,0962,10908,026.6,045.3,0.393,733.3,01.19,0.508
2013-10-28 03:00:00,2273E-4,5C000000,-0724,0963,10996,026.6,045.3,0.393,733.2,01.19,0.508
2013-10-28 03:01:00,2156E-4,5C000000,-0724,0963,10793,026.6,045.3,0.393,733.2,01.19,0.508
2013-10-28 03:02:00,1294E-4,5C000000,-0724,0963,10929,026.6,045.3,0.393,733.3,01.19,0.508
2013-10-28 03:03:00,7456E-5,5C000000,-0724,0963,10981,026.6,045.3,0.393,733.3,01.19,0.508
2013-10-28 03:04:00,1378E-4,5C000000,-0724,0963,10844,026.6,045.3,0.393,733.4,01.19,0.508
2013-10-28 03:05:00,5929E-5,5C000000,-0724,0963,10805,026.5,045.3,0.393,733.2,01.19,0.508
2013-10-28 03:06:00,1090E-4,5C000000,-0724,0963,10874,026.5,045.3,0.393,733.4,01.19,0.508
2013-10-28 03:07:00,1245E-4,5C000000,-0724,0963,10881,026.5,045.3,0.393,733.4,01.19,0.508
2013-10-28 03:08:00,1425E-4,5C000000,-0724,0963,10864,026.6,045.3,0.393,733.5,01.19,0.508
2013-10-28 03:09:00,5651E-5,5C000000,-0724,0964,10887,026.6,045.3,0.393,733.5,01.19,0.508
2013-10-28 03:10:00,1422E-4,5C000000,-0724,0963,10794,026.6,045.3,0.393,733.5,01.19,0.508
2013-10-28 03:11:00,1572E-4,5C000000,-0724,0964,10946,026.6,045.3,0.393,733.5,01.19,0.508
2013-10-28 03:12:00,1070E-4,5C000000,-0724,0964,10935,026.5,045.3,0.393,733.5,01.19,0.508
2013-10-28 03:13:00,7282E-5,5C000000,-0724,0964,10921,026.5,045.3,0.393,733.3,01.19,0.508
2013-10-28 03:14:00,1471E-4,5C000000,-0724,0964,10888,026.6,045.3,0.393,733.5,01.19,0.508
2013-10-28 03:15:00,1600E-4,5C000000,-0724,0962,10930,026.6,045.3,0.393,733.5,01.19,0.508
2013-10-28 03:16:00,1511E-4,5C000000,-0724,0963,10841,026.6,045.3,0.393,733.5,01.19,0.508
2013-10-28 03:17:00,7155E-5,5C000000,-0724,0963,10949,026.6,045.3,0.393,733.5,01.19,0.508
2013-10-28 03:18:00,1190E-5,5C000000,-0724,0964,10934,026.5,045.3,0.393,733.5,01.19,0.508
2013-10-28 03:19:00,1335E-4,5C000000,-0724,0963,10892,026.5,045.3,0.393,733.6,01.19,0.508
2013-10-28 03:20:00,9173E-5,5C000000,-0724,0964,10958,026.6,045.3,0.393,733.6,01.19,0.508
2013-10-28 03:21:00,1230E-4,5C000000,-0724,0963,10834,026.5,045.3,0.393,733.6,01.19,0.508
2013-10-28 03:22:00,1211E-4,5C000000,-0724,0963,10844,026.6,045.3,0.393,733.6,01.19,0.508
2013-10-28 03:23:00,1008E-4,5C000000,-0724,0963,10911,026.6,045.3,0.393,733.6,01.19,0.508
2013-10-28 03:24:00,1412E-4,5C000000,-0724,0963,10779,026.6,045.3,0.393,733.6,01.19,0.508
2013-10-28 03:25:00,2717E-5,5C000000,-0724,0962,10854,026.6,045.3,0.394,733.6,01.19,0.508
2013-10-28 03:26:00,8555E-5,5C000000,-0724,0964,11050,026.5,045.3,0.394,733.5,01.19,0.508
2013-10-28 03:27:00,1500E-4,5C000000,-0724,0963,11026,026.5,045.3,0.393,733.6,01.19,0.508
2013-10-28 03:28:00,1182E-4,5C000000,-0724,0963,10957,026.6,045.3,0.393,733.6,01.19,0.508
2013-10-28 03:29:00,1477E-4,5C000000,-0724,0963,10966,026.5,045.3,0.393,733.6,01.19,0.508
2013-10-28 03:30:00,9938E-5,5C000000,-0724,0963,10892,026.5,045.3,0.393,733.6,01.19,0.508
2013-10-28 03:31:00,8292E-5,5C000000,-0724,0964,10907,026.5,045.3,0.393,733.7,01.19,0.508
2013-10-28 03:32:00,2107E-4,5C000000,-0724,0963,10934,026.5,045.3,0.393,733.7,01.19,0.508
2013-10-28 03:33:00,1600E-4,5C000000,-0724,0963,10773,026.5,045.3,0.393,733.7,01.19,0.508
2013-10-28 03:34:00,1056E-4,5C000000,-0724,0963,10955,026.5,045.3,0.393,733.8,01.19,0.508
2013-10-28 03:35:00,1899E-4,5C000000,-0724,0963,10883,026.5,045.3,0.393,733.7,01.19,0.508
2013-10-28 03:36:00,1185E-4,5C000000,-0724,0964,10860,026.5,045.3,0.393,733.7,01.19,0.508
2013-10-28 03:37:00,1316E-4,5C000000,-0724,0963,10980,026.5,045.3,0.393,733.6,01.19,0.508
2013-10-28 03:38:00,8563E-5,5C000000,-0724,0964,10810,026.5,045.3,0.393,733.6,01.19,0.508
2013-10-28 03:39:00,1129E-4,5C000000,-0724,0963,10893,026.5,045.3,0.393,733.7,01.19,0.508
2013-10-28 03:40:00,6850E-5,5C000000,-0724,0963,10831,026.5,045.3,0.393,733.7,01.19,0.508
2013-10-28 03:41:00,1315E-4,5C000000,-0724,0962,10996,026.5,045.3,0.393,733.8,01.19,0.508
2013-10-28 03:42:00,1129E-4,5C000000,-0724,0963,10886,026.5,045.3,0.393,733.8,01.19,0.508
2013-10-28 03:43:00,3722E-5,5C000000,-0724,0964,10853,026.5,045.3,0.393,733.8,01.19,0.508
2013-10-28 03:44:00,1084E-4,5C000000,-0724,0963,10926,026.5,045.3,0.394,733.9,01.19,0.508
2013-10-28 03:45:00,6435E-5,5C000000,-0724,0963,10953,026.5,045.3,0.394,733.9,01.19,0.508
2013-10-28 03:46:00,1117E-4,5C000000,-0724,0963,11004,026.5,045.3,0.394,733.9,01.19,0.508
2013-10-28 03:47:00,2514E-4,5C000000,-0724,0963,10898,026.5,045.3,0.393,733.9,01.19,0.508
2013-10-28 03:48:00,1067E-4,5C000000,-0724,0963,11043,026.5,045.3,0.393,733.9,01.19,0.508
2013-10-28 03:49:00,1998E-4,5C000000,-0724,0963,10916,026.5,045.3,0.393,733.9,01.19,0.508
2013-10-28 03:50:00,6821E-5,5C000000,-0724,0963,10736,026.5,045.3,0.393,733.9,01.19,0.508
2013-10-28 03:51:00,1524E-4,5C000000,-0724,0964,10877,026.5,045.3,0.393,734.0,01.19,0.508
2013-10-28 03:52:00,1069E-4,5C000000,-0724,0963,10813,026.5,045.3,0.393,734.0,01.19,0.508
2013-10-28 03:53:00,6255E-5,5C000000,-0724,0963,10983,026.5,045.3,0.393,734.0,01.19,0.508
2013-10-28 03:54:00,1107E-4,5C000000,-0724,0964,10746,026.5,045.3,0.393,734.0,01.19,0.508
2013-10-28 03:55:00,1030E-4,5C000000,-0724,0963,10855,026.5,045.3,0.393,734.0,01.19,0.508
2013-10-28 03:56:00,1228E-4,5C000000,-0724,0964,10847,026.5,045.3,0.393,734.0,01.19,0.508
2013-10-28 03:57:00,1935E-4,5C000000,-0724,0963,10878,026.5,045.3,0.393,734.1,01.19,0.508
2013-10-28 03:58:00,9647E-5,5C000000,-0724,0962,11036,026.5,045.3,0.393,734.1,01.19,0.508
2013-10-28 03:59:00,1334E-4,5C000000,-0724,0963,10803,026.5,045.3,0.394,734.1,01.19,0.508
2013-10-28 04:00:00,1162E-4,5C000000,-0724,0963,10902,026.5,045.3,0.394,734.1,01.19,0.508
2013-10-28 04:01:00,1359E-4,5C000000,-0724,0963,10867,026.5,045.3,0.394,734.1,01.19,0.508
2013-10-28 04:02:00,1555E-4,5C000000,-0724,0963,10828,026.5,045.3,0.394,734.1,01.19,0.508
2013-10-28 04:03:00,1439E-4,5C000000,-0724,0963,10873,026.5,045.3,0.394,734.1,01.19,0.508
2013-10-28 04:04:00,2204E-4,5C000000,-0724,0963,10933,026.4,045.3,0.394,734.1,01.19,0.508
2013-10-28 04:05:00,6231E-5,5C000000,-0724,0963,10816,026.5,045.3,0.394,734.1,01.19,0.508
2013-10-28 04:06:00,5968E-5,5C000000,-0724,0963,10946,026.5,045.3,0.394,734.1,01.19,0.508
2013-10-28 04:07:00,1688E-4,5C000000,-0724,0963,10888,026.5,045.3,0.394,734.1,01.19,0.508
2013-10-28 04:08:00,5131E-5,5C000000,-0724,0963,10930,026.5,045.3,0.394,734.1,01.19,0.508
2013-10-28 04:09:00,1513E-4,5C000000,-0724,0963,10886,026.4,045.3,0.394,734.1,01.19,0.508
2013-10-28 04:10:00,1274E-4,5C000000,-0724,0963,10892,026.5,045.3,0.394,734.1,01.19,0.508
2013-10-28 04:11:00,1577E-4,5C000000,-0724,0963,10859,026.5,045.3,0.394,734.2,01.18,0.508
2013-10-28 04:12:00,1473E-4,5C000000,-0724,0964,10745,026.5,045.3,0.394,734.1,01.19,0.508
2013-10-28 04:13:00,1441E-4,5C000000,-0724,0963,10727,026.5,045.3,0.393,734.1,01.19,0.508
2013-10-28 04:14:00,8444E-5,5C000000,-0724,0963,10964,026.4,045.3,0.393,734.1,01.19,0.508
2013-10-28 04:15:00,1782E-4,5C000000,-0724,0963,10831,026.5,045.3,0.393,734.1,01.19,0.508
2013-10-28 04:16:00,1780E-4,5C000000,-0724,0964,10929,026.4,045.3,0.393,734.1,01.19,0.508
2013-10-28 04:17:00,1561E-4,5C000000,-0724,0962,10905,026.5,045.3,0.393,734.1,01.19,0.508
2013-10-28 04:18:00,9616E-5,5C000000,-0724,0963,10856,026.5,045.3,0.394,734.1,01.19,0.508
2013-10-28 04:19:00,2128E-4,5C000000,-0724,0963,10779,026.5,045.3,0.394,734.1,01.19,0.508
2013-10-28 04:20:00,7624E-5,5C000000,-0724,0963,10931,026.5,045.3,0.394,734.1,01.19,0.508